Time,TemperatureF,DewpointF,PressureIn,WindDirection,WindDirectionDegrees,WindSpeedMPH,WindSpeedGustMPH,Humidity,HourlyPrecipIn,Conditions,Clouds,dailyrainin,SoftwareType,DateUTC
2013-02-16 00:02:00,70.0,-99.9,29.97,East,88,4.0,5.0,-999,-99.99,,,-99.99,,2013-02-16 05:02:00,
2013-02-16 00:12:00,70.0,-99.9,29.97,SE,133,2.0,4.0,-999,-99.99,,,-99.99,,2013-02-16 05:12:00,
2013-02-16 00:22:00,70.0,-99.9,29.96,South,170,4.0,6.0,-999,-99.99,,,-99.99,,2013-02-16 05:22:00,
2013-02-16 00:32:00,70.0,-99.9,29.96,South,178,4.0,6.0,-999,-99.99,,,-99.99,,2013-02-16 05:32:00,
2013-02-16 00:42:00,70.0,-99.9,29.96,South,183,4.0,7.0,-999,-99.99,,,-99.99,,2013-02-16 05:42:00,
2013-02-16 00:52:00,70.0,-99.9,29.96,WSW,242,3.0,11.0,-999,-99.99,,,-99.99,,2013-02-16 05:52:00,
2013-02-16 01:02:00,69.0,-99.9,29.96,SW,229,6.0,14.0,-999,-99.99,,,-99.99,,2013-02-16 06:02:00,
2013-02-16 01:11:00,69.0,-99.9,29.96,WSW,242,7.0,17.0,-999,-99.99,,,-99.99,,2013-02-16 06:11:00,
2013-02-16 01:22:00,69.0,-99.9,29.95,SW,232,6.0,13.0,-999,-99.99,,,-99.99,,2013-02-16 06:22:00,
2013-02-16 01:32:00,70.0,-99.9,29.95,SW,225,6.0,11.0,-999,-99.99,,,-99.99,,2013-02-16 06:32:00,
2013-02-16 01:42:00,69.0,-99.9,29.94,SSW,210,6.0,14.0,-999,-99.99,,,-99.99,,2013-02-16 06:42:00,
2013-02-16 01:52:00,69.0,-99.9,29.93,SW,220,4.0,11.0,-999,-99.99,,,-99.99,,2013-02-16 06:52:00,
2013-02-16 02:02:00,69.0,-99.9,29.93,WSW,253,4.0,7.0,-999,-99.99,,,-99.99,,2013-02-16 07:02:00,
2013-02-16 02:11:00,70.0,-99.9,29.93,WSW,249,5.0,8.0,-999,-99.99,,,-99.99,,2013-02-16 07:11:00,
2013-02-16 02:22:00,70.0,-99.9,29.93,West,273,9.0,14.0,-999,-99.99,,,-99.99,,2013-02-16 07:22:00,
2013-02-16 02:32:00,70.0,-99.9,29.92,WNW,286,13.0,16.0,-999,-99.99,,,-99.99,,2013-02-16 07:32:00,
2013-02-16 02:42:00,70.0,-99.9,29.91,WSW,245,4.0,13.0,-999,-99.99,,,-99.99,,2013-02-16 07:42:00,
2013-02-16 02:53:00,70.0,-99.9,29.91,WNW,284,9.0,12.0,-999,-99.99,,,-99.99,,2013-02-16 07:53:00,
2013-02-16 03:02:00,70.0,-99.9,29.91,WNW,297,10.0,11.0,-999,-99.99,,,-99.99,,2013-02-16 08:02:00,
2013-02-16 03:11:00,70.0,-99.9,29.91,WNW,289,9.0,12.0,-999,-99.99,,,-99.99,,2013-02-16 08:11:00,
2013-02-16 03:22:00,70.0,-99.9,29.91,West,259,4.0,7.0,-999,-99.99,,,-99.99,,2013-02-16 08:22:00,
2013-02-16 03:32:00,70.0,-99.9,29.90,West,260,3.0,6.0,-999,-99.99,,,-99.99,,2013-02-16 08:32:00,
2013-02-16 03:42:00,70.0,-99.9,29.91,West,259,4.0,5.0,-999,-99.99,,,-99.99,,2013-02-16 08:42:00,
2013-02-16 03:52:00,70.0,-99.9,29.91,West,261,6.0,9.0,-999,-99.99,,,-99.99,,2013-02-16 08:52:00,
2013-02-16 04:02:00,70.0,-99.9,29.91,NNW,328,6.0,11.0,-999,-99.99,,,-99.99,,2013-02-16 09:02:00,
2013-02-16 04:11:00,69.0,-99.9,29.91,North,351,5.0,12.0,-999,-99.99,,,-99.99,,2013-02-16 09:11:00,
2013-02-16 04:21:00,70.0,-99.9,29.91,North,356,5.0,12.0,-999,-99.99,,,-99.99,,2013-02-16 09:21:00,
2013-02-16 04:32:00,69.0,-99.9,29.91,North,359,7.0,13.0,-999,-99.99,,,-99.99,,2013-02-16 09:32:00,
2013-02-16 04:43:00,69.0,-99.9,29.91,North,355,6.0,12.0,-999,-99.99,,,-99.99,,2013-02-16 09:43:00,
2013-02-16 04:52:00,69.0,-99.9,29.91,North,356,7.0,14.0,-999,-99.99,,,-99.99,,2013-02-16 09:52:00,
2013-02-16 05:01:00,69.0,-99.9,29.91,North,5,6.0,14.0,-999,-99.99,,,-99.99,,2013-02-16 10:01:00,
2013-02-16 05:11:00,69.0,-99.9,29.91,North,2,6.0,12.0,-999,-99.99,,,-99.99,,2013-02-16 10:11:00,
2013-02-16 05:22:00,69.0,-99.9,29.91,North,5,6.0,13.0,-999,-99.99,,,-99.99,,2013-02-16 10:22:00,
2013-02-16 05:32:00,68.0,-99.9,29.91,North,9,6.0,13.0,-999,-99.99,,,-99.99,,2013-02-16 10:32:00,
2013-02-16 05:42:00,68.0,-99.9,29.91,NNE,14,8.0,13.0,-999,-99.99,,,-99.99,,2013-02-16 10:42:00,
2013-02-16 05:52:00,69.0,-99.9,29.91,NNE,13,6.0,11.0,-999,-99.99,,,-99.99,,2013-02-16 10:52:00,
2013-02-16 06:02:00,69.0,-99.9,29.91,NNE,17,8.0,13.0,-999,-99.99,,,-99.99,,2013-02-16 11:02:00,
2013-02-16 06:11:00,70.0,-99.9,29.91,NNE,13,6.0,13.0,-999,-99.99,,,-99.99,,2013-02-16 11:11:00,
2013-02-16 06:22:00,69.0,-99.9,29.91,NNE,16,8.0,13.0,-999,-99.99,,,-99.99,,2013-02-16 11:22:00,
2013-02-16 06:32:00,69.0,-99.9,29.92,NNE,12,6.0,13.0,-999,-99.99,,,-99.99,,2013-02-16 11:32:00,
2013-02-16 06:42:00,69.0,-99.9,29.92,NNE,12,7.0,13.0,-999,-99.99,,,-99.99,,2013-02-16 11:42:00,
2013-02-16 06:52:00,70.0,-99.9,29.93,NNE,13,7.0,11.0,-999,-99.99,,,-99.99,,2013-02-16 11:52:00,
2013-02-16 07:02:00,70.0,-99.9,29.94,North,6,7.0,11.0,-999,-99.99,,,-99.99,,2013-02-16 12:02:00,
2013-02-16 07:12:00,69.0,-99.9,29.94,North,11,6.0,11.0,-999,-99.99,,,-99.99,,2013-02-16 12:12:00,
2013-02-16 07:22:00,69.0,-99.9,29.94,North,9,7.0,12.0,-999,-99.99,,,-99.99,,2013-02-16 12:22:00,
2013-02-16 07:32:00,69.0,-99.9,29.94,North,360,6.0,12.0,-999,-99.99,,,-99.99,,2013-02-16 12:32:00,
2013-02-16 07:42:00,69.0,-99.9,29.95,North,2,6.0,12.0,-999,-99.99,,,-99.99,,2013-02-16 12:42:00,
2013-02-16 07:52:00,69.0,-99.9,29.96,North,6,6.0,11.0,-999,-99.99,,,-99.99,,2013-02-16 12:52:00,
2013-02-16 08:02:00,69.0,-99.9,29.95,North,10,6.0,11.0,-999,-99.99,,,-99.99,,2013-02-16 13:02:00,
2013-02-16 08:12:00,69.0,-99.9,29.95,North,1,6.0,10.0,-999,-99.99,,,-99.99,,2013-02-16 13:12:00,
2013-02-16 08:22:00,69.0,-99.9,29.95,North,10,6.0,11.0,-999,-99.99,,,-99.99,,2013-02-16 13:22:00,
2013-02-16 08:32:00,69.0,-99.9,29.95,North,359,6.0,11.0,-999,-99.99,,,-99.99,,2013-02-16 13:32:00,
2013-02-16 08:42:00,69.0,-99.9,29.96,NNE,16,6.0,11.0,-999,-99.99,,,-99.99,,2013-02-16 13:42:00,
2013-02-16 08:52:00,69.0,-99.9,29.96,North,358,6.0,9.0,-999,-99.99,,,-99.99,,2013-02-16 13:52:00,
2013-02-16 09:01:00,69.0,-99.9,29.96,NNW,344,3.0,8.0,-999,-99.99,,,-99.99,,2013-02-16 14:01:00,
2013-02-16 09:11:00,69.0,-99.9,29.96,North,356,5.0,9.0,-999,-99.99,,,-99.99,,2013-02-16 14:11:00,
2013-02-16 09:21:00,70.0,-99.9,29.96,North,360,4.0,8.0,-999,-99.99,,,-99.99,,2013-02-16 14:21:00,
2013-02-16 09:32:00,70.0,-99.9,29.96,North,1,6.0,9.0,-999,-99.99,,,-99.99,,2013-02-16 14:32:00,
2013-02-16 09:42:00,70.0,-99.9,29.96,North,350,5.0,10.0,-999,-99.99,,,-99.99,,2013-02-16 14:42:00,
2013-02-16 09:52:00,70.0,-99.9,29.97,North,350,7.0,11.0,-999,-99.99,,,-99.99,,2013-02-16 14:52:00,
2013-02-16 10:02:00,71.0,-99.9,29.97,NNW,347,3.0,10.0,-999,-99.99,,,-99.99,,2013-02-16 15:02:00,
2013-02-16 10:11:00,73.0,-99.9,29.97,NNW,335,6.0,10.0,-999,-99.99,,,-99.99,,2013-02-16 15:11:00,
2013-02-16 10:22:00,72.0,-99.9,29.98,NNW,341,6.0,11.0,-999,-99.99,,,-99.99,,2013-02-16 15:22:00,
2013-02-16 10:32:00,72.0,-99.9,29.98,NNW,340,7.0,13.0,-999,-99.99,,,-99.99,,2013-02-16 15:32:00,
2013-02-16 10:42:00,73.0,-99.9,29.98,NW,324,12.0,14.0,-999,-99.99,,,-99.99,,2013-02-16 15:42:00,
2013-02-16 10:52:00,73.0,-99.9,29.98,NW,326,11.0,15.0,-999,-99.99,,,-99.99,,2013-02-16 15:52:00,
2013-02-16 11:02:00,73.0,-99.9,29.98,NNW,329,7.0,15.0,-999,-99.99,,,-99.99,,2013-02-16 16:02:00,
2013-02-16 11:11:00,72.0,-99.9,29.99,NW,325,11.0,17.0,-999,-99.99,,,-99.99,,2013-02-16 16:11:00,
2013-02-16 11:22:00,72.0,-99.9,29.99,NW,326,14.0,20.0,-999,-99.99,,,-99.99,,2013-02-16 16:22:00,
2013-02-16 11:32:00,72.0,-99.9,29.99,NW,323,15.0,19.0,-999,-99.99,,,-99.99,,2013-02-16 16:32:00,
2013-02-16 11:42:00,71.0,-99.9,29.99,NW,321,18.0,22.0,-999,-99.99,,,-99.99,,2013-02-16 16:42:00,
2013-02-16 11:52:00,71.0,-99.9,29.99,NW,321,18.0,22.0,-999,-99.99,,,-99.99,,2013-02-16 16:52:00,
2013-02-16 12:01:00,71.0,-99.9,30.00,NW,322,21.0,24.0,-999,-99.99,,,-99.99,,2013-02-16 17:01:00,
2013-02-16 12:11:00,71.0,-99.9,29.99,NW,318,21.0,25.0,-999,-99.99,,,-99.99,,2013-02-16 17:11:00,
2013-02-16 12:22:00,71.0,-99.9,30.00,NNW,327,17.0,23.0,-999,-99.99,,,-99.99,,2013-02-16 17:22:00,
2013-02-16 12:32:00,71.0,-99.9,29.99,NW,324,18.0,23.0,-999,-99.99,,,-99.99,,2013-02-16 17:32:00,
2013-02-16 12:42:00,70.0,-99.9,29.99,NW,322,22.0,25.0,-999,-99.99,,,-99.99,,2013-02-16 17:42:00,
2013-02-16 12:52:00,70.0,-99.9,29.99,NW,316,20.0,23.0,-999,-99.99,,,-99.99,,2013-02-16 17:52:00,
2013-02-16 13:02:00,71.0,-99.9,29.99,NW,324,21.0,24.0,-999,-99.99,,,-99.99,,2013-02-16 18:02:00,
2013-02-16 13:11:00,70.0,-99.9,29.99,NW,320,21.0,26.0,-999,-99.99,,,-99.99,,2013-02-16 18:11:00,
2013-02-16 13:22:00,70.0,-99.9,29.98,NW,317,23.0,27.0,-999,-99.99,,,-99.99,,2013-02-16 18:22:00,
2013-02-16 13:33:00,70.0,-99.9,29.98,NW,316,21.0,25.0,-999,-99.99,,,-99.99,,2013-02-16 18:33:00,
2013-02-16 13:42:00,70.0,-99.9,29.98,NW,318,23.0,27.0,-999,-99.99,,,-99.99,,2013-02-16 18:42:00,
2013-02-16 13:52:00,70.0,-99.9,29.98,NW,317,24.0,28.0,-999,-99.99,,,-99.99,,2013-02-16 18:52:00,
2013-02-16 14:02:00,70.0,-99.9,29.98,NW,315,23.0,28.0,-999,-99.99,,,-99.99,,2013-02-16 19:02:00,
2013-02-16 14:11:00,70.0,-99.9,29.98,NW,312,24.0,28.0,-999,-99.99,,,-99.99,,2013-02-16 19:11:00,
2013-02-16 14:22:00,71.0,-99.9,29.97,NW,319,24.0,28.0,-999,-99.99,,,-99.99,,2013-02-16 19:22:00,
2013-02-16 14:32:00,70.0,-99.9,29.98,NW,317,25.0,30.0,-999,-99.99,,,-99.99,,2013-02-16 19:32:00,
2013-02-16 14:42:00,69.0,-99.9,29.98,NW,309,23.0,29.0,-999,-99.99,,,-99.99,,2013-02-16 19:42:00,
2013-02-16 14:52:00,69.0,-99.9,29.97,NW,310,24.0,31.0,-999,-99.99,,,-99.99,,2013-02-16 19:52:00,
2013-02-16 15:02:00,69.0,-99.9,29.97,NW,312,24.0,30.0,-999,-99.99,,,-99.99,,2013-02-16 20:02:00,
2013-02-16 15:11:00,69.0,-99.9,29.97,NW,315,26.0,32.0,-999,-99.99,,,-99.99,,2013-02-16 20:11:00,
2013-02-16 15:22:00,69.0,-99.9,29.98,NW,310,24.0,31.0,-999,-99.99,,,-99.99,,2013-02-16 20:22:00,
2013-02-16 15:32:00,69.0,-99.9,29.98,NW,312,25.0,30.0,-999,-99.99,,,-99.99,,2013-02-16 20:32:00,
2013-02-16 15:42:00,69.0,-99.9,29.98,NW,314,25.0,34.0,-999,-99.99,,,-99.99,,2013-02-16 20:42:00,
2013-02-16 15:52:00,69.0,-99.9,29.98,NW,311,25.0,32.0,-999,-99.99,,,-99.99,,2013-02-16 20:52:00,
2013-02-16 16:02:00,69.0,-99.9,29.98,NW,308,26.0,30.0,-999,-99.99,,,-99.99,,2013-02-16 21:02:00,
2013-02-16 16:11:00,68.0,-99.9,29.98,NW,315,27.0,34.0,-999,-99.99,,,-99.99,,2013-02-16 21:11:00,
2013-02-16 16:22:00,68.0,-99.9,29.98,NW,315,25.0,32.0,-999,-99.99,,,-99.99,,2013-02-16 21:22:00,
2013-02-16 16:32:00,68.0,-99.9,29.98,NW,314,28.0,33.0,-999,-99.99,,,-99.99,,2013-02-16 21:32:00,
2013-02-16 16:42:00,68.0,-99.9,29.99,NW,322,27.0,33.0,-999,-99.99,,,-99.99,,2013-02-16 21:42:00,
2013-02-16 16:52:00,68.0,-99.9,29.99,NW,311,27.0,31.0,-999,-99.99,,,-99.99,,2013-02-16 21:52:00,
2013-02-16 17:02:00,68.0,-99.9,29.99,NW,317,28.0,32.0,-999,-99.99,,,-99.99,,2013-02-16 22:02:00,
2013-02-16 17:11:00,69.0,-99.9,29.99,NW,318,28.0,36.0,-999,-99.99,,,-99.99,,2013-02-16 22:11:00,
2013-02-16 17:22:00,69.0,-99.9,30.00,NW,310,26.0,33.0,-999,-99.99,,,-99.99,,2013-02-16 22:22:00,
2013-02-16 17:32:00,68.0,-99.9,30.00,NW,314,26.0,34.0,-999,-99.99,,,-99.99,,2013-02-16 22:32:00,
2013-02-16 17:42:00,68.0,-99.9,30.00,NW,314,26.0,34.0,-999,-99.99,,,-99.99,,2013-02-16 22:42:00,
2013-02-16 17:52:00,69.0,-99.9,30.00,NW,323,27.0,33.0,-999,-99.99,,,-99.99,,2013-02-16 22:52:00,
2013-02-16 18:02:00,69.0,-99.9,30.01,NW,323,26.0,34.0,-999,-99.99,,,-99.99,,2013-02-16 23:02:00,
2013-02-16 18:11:00,69.0,-99.9,30.00,NW,320,27.0,32.0,-999,-99.99,,,-99.99,,2013-02-16 23:11:00,
2013-02-16 18:22:00,69.0,-99.9,30.01,NW,313,25.0,34.0,-999,-99.99,,,-99.99,,2013-02-16 23:22:00,
2013-02-16 18:32:00,69.0,-99.9,30.01,NW,314,25.0,30.0,-999,-99.99,,,-99.99,,2013-02-16 23:32:00,
2013-02-16 18:42:00,69.0,-99.9,30.01,NW,321,28.0,34.0,-999,-99.99,,,-99.99,,2013-02-16 23:42:00,
2013-02-16 18:52:00,69.0,-99.9,30.01,NW,318,29.0,33.0,-999,-99.99,,,-99.99,,2013-02-16 23:52:00,
2013-02-16 19:02:00,69.0,-99.9,30.01,NW,314,31.0,36.0,-999,-99.99,,,-99.99,,2013-02-17 00:02:00,
2013-02-16 19:12:00,68.0,-99.9,30.01,NW,320,30.0,34.0,-999,-99.99,,,-99.99,,2013-02-17 00:12:00,
2013-02-16 19:22:00,69.0,-99.9,30.01,NW,322,26.0,34.0,-999,-99.99,,,-99.99,,2013-02-17 00:22:00,
2013-02-16 19:32:00,69.0,-99.9,30.02,NW,313,25.0,34.0,-999,-99.99,,,-99.99,,2013-02-17 00:32:00,
2013-02-16 19:42:00,68.0,-99.9,30.02,NW,321,29.0,36.0,-999,-99.99,,,-99.99,,2013-02-17 00:42:00,
2013-02-16 19:52:00,67.0,-99.9,30.03,NW,323,30.0,35.0,-999,-99.99,,,-99.99,,2013-02-17 00:52:00,
2013-02-16 20:01:00,68.0,-99.9,30.03,NW,320,29.0,34.0,-999,-99.99,,,-99.99,,2013-02-17 01:01:00,
2013-02-16 20:11:00,68.0,-99.9,30.04,NW,323,29.0,35.0,-999,-99.99,,,-99.99,,2013-02-17 01:11:00,
2013-02-16 20:22:00,67.0,-99.9,30.04,NW,324,24.0,35.0,-999,-99.99,,,-99.99,,2013-02-17 01:22:00,
2013-02-16 20:32:00,67.0,-99.9,30.05,NW,322,26.0,34.0,-999,-99.99,,,-99.99,,2013-02-17 01:32:00,
2013-02-16 20:42:00,67.0,-99.9,30.06,NW,324,24.0,32.0,-999,-99.99,,,-99.99,,2013-02-17 01:42:00,
2013-02-16 20:52:00,67.0,-99.9,30.06,NW,325,28.0,35.0,-999,-99.99,,,-99.99,,2013-02-17 01:52:00,
2013-02-16 21:01:00,67.0,-99.9,30.07,NW,324,26.0,32.0,-999,-99.99,,,-99.99,,2013-02-17 02:01:00,
2013-02-16 21:11:00,67.0,-99.9,30.07,NW,323,26.0,33.0,-999,-99.99,,,-99.99,,2013-02-17 02:11:00,
2013-02-16 21:21:00,66.0,-99.9,30.08,NW,326,23.0,35.0,-999,-99.99,,,-99.99,,2013-02-17 02:21:00,
2013-02-16 21:32:00,66.0,-99.9,30.08,NNW,330,20.0,30.0,-999,-99.99,,,-99.99,,2013-02-17 02:32:00,
2013-02-16 21:42:00,66.0,-99.9,30.09,NNW,334,16.0,33.0,-999,-99.99,,,-99.99,,2013-02-17 02:42:00,
2013-02-16 21:52:00,66.0,-99.9,30.09,NNW,328,20.0,29.0,-999,-99.99,,,-99.99,,2013-02-17 02:52:00,
2013-02-16 22:02:00,66.0,-99.9,30.09,NW,323,25.0,33.0,-999,-99.99,,,-99.99,,2013-02-17 03:02:00,
2013-02-16 22:11:00,66.0,-99.9,30.09,NW,325,23.0,29.0,-999,-99.99,,,-99.99,,2013-02-17 03:11:00,
2013-02-16 22:21:00,66.0,-99.9,30.09,NW,324,22.0,28.0,-999,-99.99,,,-99.99,,2013-02-17 03:21:00,
2013-02-16 22:32:00,66.0,-99.9,30.09,NW,325,19.0,28.0,-999,-99.99,,,-99.99,,2013-02-17 03:32:00,
2013-02-16 22:42:00,66.0,-99.9,30.09,NW,326,22.0,30.0,-999,-99.99,,,-99.99,,2013-02-17 03:42:00,
2013-02-16 22:52:00,66.0,-99.9,30.09,NNW,328,19.0,31.0,-999,-99.99,,,-99.99,,2013-02-17 03:52:00,
2013-02-16 23:01:00,66.0,-99.9,30.09,NW,325,21.0,28.0,-999,-99.99,,,-99.99,,2013-02-17 04:01:00,
2013-02-16 23:11:00,66.0,-99.9,30.10,NW,326,20.0,26.0,-999,-99.99,,,-99.99,,2013-02-17 04:11:00,
2013-02-16 23:22:00,66.0,-99.9,30.10,NW,321,23.0,31.0,-999,-99.99,,,-99.99,,2013-02-17 04:22:00,
2013-02-16 23:32:00,66.0,-99.9,30.10,NW,315,25.0,30.0,-999,-99.99,,,-99.99,,2013-02-17 04:32:00,
2013-02-16 23:42:00,67.0,-99.9,30.10,NW,320,26.0,31.0,-999,-99.99,,,-99.99,,2013-02-17 04:42:00,
2013-02-16 23:52:00,66.0,-99.9,30.10,NW,324,25.0,33.0,-999,-99.99,,,-99.99,,2013-02-17 04:52:00,